Location: Badlands Tank
(34.7185°N, 107.0376°W)
Time: 22:14:28
(UTC+00:00)

IRIDIUM 106 - Visible Passes

Search period start: 18 November 2025 00:00
Search period end: 28 November 2025 00:00
Orbit: 776 x 779 km, 86.4° (Epoch: 18 November)

Date Brightness Start Highest point End Pass type
(mag) Time Alt. Az. Time Alt. Az. Time Alt. Az.
23 Nov7.302:26:41S02:26:41S02:12:22Nvisible
24 Nov6.801:51:33SSE01:51:33SSE01:39:34Nvisible
25 Nov 6.3 01:16:02 12° ESE 01:16:02 12° ESE 01:16:27 10° SE visible
25 Nov 6.4 02:56:20 20° SW 02:56:20 20° SW 02:58:10 10° SSW visible
26 Nov 6.2 00:39:25 10° E 00:39:25 10° E 00:35:38 - NE visible
26 Nov 4.4 02:14:48 10° N 02:20:00 73° W 02:25:11 10° S visible
27 Nov 4.3 01:41:20 10° N 01:46:29 58° E 01:51:36 10° SSE visible
27 Nov 7.2 03:24:18 10° NW 03:26:36 13° W 03:28:53 10° WSW visible
27 Nov 7.3 12:57:16 10° ESE 12:59:23 12° E 13:01:30 10° NE visible
